Вернуться в каталог

DELTA 1 DEB

АктивенPO
NORAD 21566·DEBRIS·🇺🇸 United States

Запущен Jun 12, 1975 с Vandenberg Space Force Base

Loading…

Ближайшие Пролёты (ближайшие 24 часа)

TLE

СвежийSource: Space-Track

Эпоха: Sep 13, 2026, 22:13 UTC

1 21566U 75052HL  26256.92590624  .00000062  00000-0  33173-3 0  9995
2 21566  99.5801 251.6464 0323685 303.7581  81.6008 12.83942513655058

Отслеживайте DELTA 1 DEB в реальном времени с AllMySat

Download on the App Store